Location: Unspecified
(51.5147°N, 7.4673°E)
Time: 22:49:47
(UTC+01:00)

Tiros 1 despin weight - All Passes

Search period start: 17 February 2026 00:00
Search period end: 27 February 2026 00:00
Orbit: 557 x 594 km, 48.2° (Epoch: 16 February)

Date Brightness Start Highest point End Pass type
(mag) Time Alt. Az. Time Alt. Az. Time Alt. Az.
17 Feb - 14:51:28 10° SE 14:51:41 10° SE 14:51:56 10° SE daylight
17 Feb - 16:27:36 10° SW 16:31:20 31° SSE 16:35:04 10° E daylight
17 Feb - 18:07:23 10° WSW 18:11:29 54° S 18:15:36 10° E daylight
17 Feb - 19:47:46 10° W 19:51:45 43° SSW 19:55:45 10° SE visible
17 Feb - 21:28:49 10° WSW 21:31:39 18° SW 21:34:29 10° S visible
18 Feb - 14:51:35 10° S 14:53:53 14° SE 14:56:12 10° ESE daylight
18 Feb - 16:29:47 10° SW 16:33:42 38° SSE 16:37:37 10° E daylight
18 Feb - 18:09:49 10° WSW 18:13:56 55° S 18:18:02 10° ESE daylight
18 Feb - 19:50:17 10° W 19:54:09 36° SSW 19:58:00 10° SE visible
18 Feb - 21:32:00 10° WSW 21:33:53 13° SW 21:35:47 10° SSW visible
19 Feb - 14:53:05 10° SSW 14:56:08 20° SSE 14:59:11 10° E daylight
19 Feb - 16:32:04 10° WSW 16:36:05 45° SSE 16:40:07 10° E daylight
19 Feb - 18:12:16 10° W 18:16:21 53° S 18:20:27 10° ESE daylight
19 Feb - 19:52:50 10° W 19:56:29 29° SSW 20:00:08 10° SE visible
20 Feb - 14:54:56 10° SSW 14:58:25 25° SSE 15:01:54 10° E daylight
20 Feb - 16:34:24 10° WSW 16:38:29 51° S 16:42:34 10° E daylight
20 Feb - 18:14:43 10° W 18:18:46 48° SSW 18:22:50 10° ESE daylight
20 Feb - 19:55:29 10° W 19:58:47 23° SSW 20:02:05 10° SSE visible
21 Feb - 13:20:14 10° SSE 13:21:04 10° SE 13:21:55 10° SE daylight
21 Feb - 14:56:58 10° SW 15:00:44 32° SSE 15:04:29 10° E daylight
21 Feb - 16:36:47 10° WSW 16:40:54 54° S 16:45:00 10° E daylight
21 Feb - 18:17:10 10° W 18:21:09 42° SSW 18:25:08 10° SE daylight
21 Feb - 19:58:17 10° WSW 20:01:02 17° SW 20:03:47 10° S visible
22 Feb - 13:20:49 10° S 13:23:15 15° SE 13:25:40 10° ESE daylight
22 Feb - 14:59:08 10° SW 15:03:04 39° SSE 15:06:59 10° E daylight
22 Feb - 16:39:11 10° WSW 16:43:18 55° S 16:47:24 10° ESE daylight
22 Feb - 18:19:39 10° W 18:23:30 35° SSW 18:27:20 10° SE daylight
22 Feb - 20:01:29 10° WSW 20:03:14 12° SW 20:04:58 10° SSW visible
23 Feb - 13:22:20 10° SSW 13:25:28 20° SSE 13:28:34 10° E daylight
23 Feb - 15:01:22 10° WSW 15:05:25 46° SSE 15:09:27 10° E daylight
23 Feb - 16:41:36 10° W 16:45:42 53° S 16:49:47 10° ESE daylight
23 Feb - 18:22:12 10° W 18:25:49 28° SSW 18:29:25 10° SSE daylight
24 Feb - 13:24:11 10° SSW 13:27:43 26° SSE 13:31:14 10° E daylight
24 Feb - 15:03:41 10° WSW 15:07:48 51° S 15:11:53 10° E daylight
24 Feb - 16:44:01 10° W 16:48:04 48° SSW 16:52:08 10° ESE daylight
24 Feb - 18:24:49 10° W 18:28:04 22° SSW 18:31:20 10° SSE daylight
25 Feb - 11:49:09 10° SSE 11:50:19 11° SE 11:51:29 10° ESE daylight
25 Feb - 13:26:11 10° SW 13:30:00 33° SSE 13:33:47 10° E daylight
25 Feb - 15:06:03 10° WSW 15:10:11 54° S 15:14:17 10° E daylight
25 Feb - 16:46:26 10° W 16:50:25 41° SSW 16:54:23 10° SE daylight
25 Feb - 18:27:36 10° WSW 18:30:17 17° SW 18:32:58 10° S daylight
26 Feb - 11:49:56 10° S 11:52:28 16° SE 11:55:00 10° ESE daylight
26 Feb - 13:28:20 10° SW 13:32:18 40° SSE 13:36:15 10° E daylight
26 Feb - 15:08:24 10° W 15:12:33 55° S 15:16:40 10° ESE daylight
26 Feb - 16:48:54 10° W 16:52:44 34° SSW 16:56:34 10° SE daylight
26 Feb - 18:30:50 10° WSW 18:32:27 12° SW 18:34:02 10° SSW daylight
